[[{"header":{"parameterUnit":"m.s-1","parameterCategory":1,"la1":30.2991,"la2":30.254,"lo1":-89.0895,"lo2":-89.0444,"dy":0.0017,"dx":0.0017,"nx":28,"ny":28,"refTime":"2025-03-16T03:00:00:Z","depth":0,"parameterNumber":2,"parameterNumberName":"U-component_of_WINDS"},"data":[0,0,0,0,0,0,0,0,0,0,0,0,0,0,0,0,0,0,0,0,0,0,0,0,0,0,0,0,0,0,0,0,0,0,0,0,0,0,0,0,0,0,0,0,0,0,0,0,0,0,0,0,0,0,0,0,0,0,6.1677,6.1679,0,6.1826,6.1827,6.1829,6.1824,6.1822,6.182,6.1818,6.1974,6.198,6.1986,0,0,0,0,0,0,0,0,0,0,0,0,0,6.1394,6.14,6.1677,6.1679,6.1681,6.1825,6.1828,6.183,6.1825,6.1822,6.182,6.1817,6.1972,6.1979,6.1986,0,0,0,0,0,0,0,0,0,0,0,0,0,6.1528,6.1401,6.1677,6.1696,6.1699,6.1825,6.1828,6.183,6.1825,6.1822,6.1819,6.1816,6.1969,6.1978,6.1987,6.2105,0,0,6.2015,6.2019,0,0,0,0,0,0,0,0,6.152,6.1538,6.1691,6.1695,6.1698,6.1803,6.1785,6.1923,6.1826,6.1777,6.1818,6.1815,6.192,6.1933,6.1968,6.2113,6.2119,6.2016,6.2021,6.2025,6.2028,0,0,0,0,0,0,0,6.1511,6.1532,6.1736,6.1693,6.1698,6.1699,6.1714,6.1811,6.1864,6.1781,6.1781,6.1799,6.1921,6.1959,6.1971,6.2122,6.2016,6.2024,6.2029,6.2033,6.2375,6.2379,0,0,0,0,0,0,6.1497,6.1524,6.1731,6.174,6.16,6.1706,6.1723,6.1773,6.1863,6.1874,6.1801,6.1798,6.1945,6.1961,6.1977,6.2123,6.2025,6.2034,6.2039,6.2372,6.2376,6.238,0,0,0,0,0,0,6.1491,6.1515,6.1725,6.1632,6.1659,6.1714,6.177,6.1777,6.1815,6.1878,6.1888,6.183,6.1943,6.1964,6.2074,6.2129,6.2038,6.2046,6.2367,6.2373,6.2378,6.2416,0,0,0,0,0,0,6.1483,6.1513,6.1557,6.1633,6.1664,6.1819,6.1773,6.1782,6.183,6.1827,6.1907,6.1918,6.1942,6.2061,6.2083,6.2139,6.2053,6.2363,6.237,6.2376,6.241,6.2422,6.2432,0,0,0,0,0,6.1473,6.1562,6.1559,6.1584,6.172,6.1822,6.1839,6.1865,6.1834,6.188,6.1922,6.1915,6.2119,6.2072,6.2097,6.2157,6.236,6.2368,6.2376,6.2405,6.242,6.2432,0,0,0,0,0,0,6.1491,6.1572,6.157,6.1686,6.1747,6.1821,6.1879,6.1879,6.195,6.1945,6.1974,6.1993,6.2104,6.2141,6.2087,6.2278,6.2236,6.2249,6.2249,6.2264,6.2274,6.2264,6.2061,0,0,0,0,0,6.1509,6.1583,6.165,6.1747,6.1777,6.1823,6.1868,6.1883,6.1947,6.1973,6.2022,6.2086,6.2165,6.2216,6.2292,6.2416,6.2435,6.247,6.2481,6.249,6.2501,6.2573,6.259,6.2407,6.2407,6.2407,0,0,6.1546,6.1599,6.1645,6.1752,6.1801,6.1879,6.1845,6.1928,6.1988,6.1986,6.2094,6.2132,6.2206,6.2324,6.2379,6.2359,6.2556,6.25,6.2507,6.2514,6.2583,6.26,6.2616,6.2413,6.2412,6.2411,0,0,6.1654,6.1701,6.1788,6.1838,6.1912,6.1942,6.1963,6.2037,6.2063,6.2171,6.2173,6.2244,6.2378,6.2432,6.2477,6.2608,6.2606,6.2632,6.2691,6.276,6.2774,6.2787,6.2836,6.2854,6.2644,6.2644,6.2644,0,6.1691,6.1808,6.1832,6.1918,6.1966,6.1968,6.2058,6.2105,6.2201,6.2235,6.2212,6.2383,6.2432,6.2564,6.2597,6.2632,6.2659,6.2623,6.277,6.2783,6.2796,6.2843,6.2861,6.2647,6.2646,6.2646,6.2646,0,6.1852,6.1933,6.1994,6.2086,6.2142,6.2229,6.2268,6.2322,6.2332,6.2366,6.2478,6.2538,6.2627,6.2659,6.267,6.2794,6.278,6.2763,6.2721,6.2816,6.2861,6.2879,6.2651,6.265,6.2649,6.2648,0,0,6.1974,6.2081,6.2103,6.2146,6.2229,6.2294,6.2382,6.2469,6.2515,6.2582,6.2659,6.2774,6.2759,6.281,6.2827,6.2888,6.2992,6.2864,6.2866,6.2887,6.3135,6.3149,6.3169,6.2991,6.2994,6.2997,6.313,0,6.2093,6.2248,6.2274,6.2411,6.2488,6.2493,6.257,6.2631,6.2666,6.2738,6.2776,6.2858,6.2831,6.2862,6.2922,6.2966,6.3042,6.2957,6.3064,6.3068,6.3047,6.3192,6.3206,6.3329,6.3147,6.315,6.3153,0,6.2251,6.2322,6.2467,6.2542,6.2576,6.2645,6.2728,6.2796,6.2866,6.2887,6.2945,6.2956,6.3051,6.3004,6.3137,6.3078,6.3124,6.3152,6.3158,6.317,6.3116,6.321,6.3368,6.3387,6.318,6.3178,6.3176,0,6.2329,6.2461,6.2565,6.2602,6.2692,6.2741,6.2781,6.2848,6.2899,6.2973,6.3007,6.3091,6.3137,6.3203,6.3237,6.3199,6.3368,6.3323,6.339,6.339,6.3426,6.3423,6.3595,6.3453,6.3453,6.3452,6.3452,0,6.2459,6.2548,6.2602,6.2666,6.2767,6.2797,6.2896,6.2936,6.2996,6.307,6.3079,6.3148,6.3189,6.3265,6.3293,6.34,6.342,6.3441,6.3448,6.3441,6.3439,6.3472,6.3465,6.3457,6.3456,6.3455,6.3454,0,6.2564,6.2602,6.2717,6.2793,6.2815,6.2886,6.2953,6.3017,6.3051,6.3145,6.3169,6.3224,6.3314,6.3355,6.3466,6.3485,6.3608,6.3607,6.3584,6.3586,6.3651,6.3645,6.3852,6.3882,6.3718,6.372,6.3721,0,6.2645,6.2713,6.2798,6.2847,6.2889,6.2968,6.3021,6.3055,6.311,6.3196,6.3251,6.3341,6.3415,6.356,6.3611,6.3698,6.3701,6.3767,6.3714,6.3706,6.3704,6.37,6.3709,6.3777,6.3779,6.378,6.3781,0,6.2786,6.2802,6.2877,6.296,6.3023,6.309,6.3156,6.3196,6.324,6.3302,6.3394,6.3452,6.3566,6.3657,6.3747,6.3791,6.3795,6.3797,6.3818,6.3813,6.3797,6.3808,6.3612,6.3793,6.3792,6.3791,6.379,6.379,6.2882,6.2945,6.3014,6.3099,6.3152,6.3213,6.3278,6.3321,6.3398,6.3493,6.3509,6.3608,6.368,6.3801,6.3848,6.3927,6.3911,6.394,6.3948,6.3955,6.396,6.3783,6.3944,6.3943,6.3943,6.3943,6.3943,0,6.3026,6.3071,6.3148,6.324,6.3307,6.3303,6.3377,6.3434,6.3521,6.3586,6.3659,6.3767,6.3856,6.3915,6.4005,6.4058,6.4062,6.4081,6.4078,6.4088,6.3968,6.3942,6.4076,6.4076,6.4076,6.4076,6.4076,6.4076,6.3108,6.3214,6.3239,6.3373,6.3418,6.3514,6.3557,6.3615,6.3668,6.3787,6.3861,6.3898,6.3963,6.4058,6.414,6.4156,6.4189,6.4209,6.4224,6.411,6.4097,6.4083,6.4059,6.4216,6.4216,6.4338,6.4339,6.434]},{"header":{"parameterUnit":"m.s-1","parameterCategory":1,"la1":30.2991,"la2":30.254,"lo1":-89.0895,"lo2":-89.0444,"dy":0.0017,"dx":0.0017,"nx":28,"ny":28,"refTime":"2025-03-16T03:00:00:Z","depth":0,"parameterNumber":3,"parameterNumberName":"V-component_of_WINDS"},"data":[0,0,0,0,0,0,0,0,0,0,0,0,0,0,0,0,0,0,0,0,0,0,0,0,0,0,0,0,0,0,0,0,0,0,0,0,0,0,0,0,0,0,0,0,0,0,0,0,0,0,0,0,0,0,0,0,0,0,-2.1354,-2.1354,0,-2.1313,-2.1313,-2.1312,-2.1309,-2.1309,-2.131,-2.131,-2.1264,-2.1262,-2.126,0,0,0,0,0,0,0,0,0,0,0,0,0,-2.1428,-2.1426,-2.1354,-2.1354,-2.1353,-2.1313,-2.1313,-2.1312,-2.1309,-2.1309,-2.131,-2.1311,-2.1264,-2.1262,-2.126,0,0,0,0,0,0,0,0,0,0,0,0,0,-2.1392,-2.1426,-2.1355,-2.1347,-2.1346,-2.1314,-2.1313,-2.1312,-2.1309,-2.1309,-2.131,-2.1311,-2.1265,-2.1262,-2.126,-2.1231,0,0,-2.1252,-2.1251,0,0,0,0,0,0,0,0,-2.1394,-2.1389,-2.1349,-2.1348,-2.1346,-2.1317,-2.1322,-2.1285,-2.1309,-2.1323,-2.131,-2.1311,-2.1281,-2.1277,-2.1268,-2.1229,-2.1227,-2.1252,-2.1251,-2.125,-2.1249,0,0,0,0,0,0,0,-2.1397,-2.1391,-2.1338,-2.1348,-2.1347,-2.1345,-2.1341,-2.1315,-2.1298,-2.1322,-2.1321,-2.1317,-2.128,-2.127,-2.1266,-2.1226,-2.1252,-2.125,-2.1248,-2.1247,-2.1164,-2.1163,0,0,0,0,0,0,-2.1401,-2.1393,-2.1339,-2.1337,-2.1372,-2.1343,-2.1338,-2.1326,-2.1299,-2.1295,-2.1316,-2.1317,-2.1274,-2.1269,-2.1265,-2.123,-2.125,-2.1247,-2.1246,-2.1164,-2.1164,-2.1163,0,0,0,0,0,0,-2.1402,-2.1396,-2.1341,-2.1365,-2.1358,-2.1341,-2.1327,-2.1325,-2.1314,-2.1295,-2.1291,-2.1309,-2.1274,-2.1268,-2.124,-2.1229,-2.1246,-2.1244,-2.1165,-2.1164,-2.1163,-2.116,0,0,0,0,0,0,-2.1405,-2.1397,-2.1386,-2.1365,-2.1357,-2.1318,-2.1326,-2.1323,-2.1311,-2.1311,-2.1287,-2.1283,-2.1274,-2.1244,-2.1238,-2.1225,-2.1242,-2.1166,-2.1165,-2.1163,-2.1161,-2.1159,-2.1157,0,0,0,0,0,-2.1407,-2.1385,-2.1385,-2.1379,-2.1343,-2.1317,-2.1312,-2.1303,-2.131,-2.1298,-2.1286,-2.1284,-2.1231,-2.1241,-2.1234,-2.1221,-2.1167,-2.1165,-2.1164,-2.1162,-2.116,-2.1157,0,0,0,0,0,0,-2.1403,-2.1382,-2.1382,-2.1353,-2.1337,-2.1317,-2.1302,-2.1301,-2.1282,-2.1282,-2.1271,-2.1266,-2.1238,-2.1227,-2.1238,-2.1192,-2.12,-2.1196,-2.1201,-2.1198,-2.1196,-2.1199,-2.124,0,0,0,0,0,-2.1399,-2.1381,-2.1363,-2.1339,-2.1331,-2.1318,-2.1307,-2.1302,-2.1284,-2.1277,-2.1262,-2.1245,-2.1224,-2.1211,-2.119,-2.116,-2.1155,-2.1148,-2.1146,-2.1144,-2.1141,-2.1126,-2.1123,-2.1157,-2.1157,-2.1157,0,0,-2.1389,-2.1376,-2.1365,-2.1338,-2.1325,-2.1306,-2.1312,-2.1291,-2.1277,-2.1273,-2.1247,-2.1236,-2.1215,-2.1187,-2.1173,-2.1176,-2.1131,-2.1142,-2.1141,-2.1139,-2.1124,-2.1121,-2.1118,-2.1156,-2.1156,-2.1157,0,0,-2.1363,-2.1351,-2.133,-2.1318,-2.13,-2.1292,-2.1287,-2.1268,-2.1261,-2.1235,-2.1232,-2.1215,-2.1179,-2.1165,-2.1153,-2.1126,-2.1123,-2.1119,-2.1109,-2.1094,-2.1091,-2.1089,-2.108,-2.1076,-2.1117,-2.1117,-2.1117,0,-2.1353,-2.1325,-2.1319,-2.1299,-2.1288,-2.1286,-2.1266,-2.1254,-2.1229,-2.1221,-2.1225,-2.1183,-2.1169,-2.1138,-2.1131,-2.1121,-2.1116,-2.1121,-2.1093,-2.109,-2.1088,-2.1079,-2.1075,-2.1116,-2.1116,-2.1116,-2.1116,0,-2.1315,-2.1296,-2.1282,-2.1261,-2.1248,-2.1227,-2.1218,-2.1205,-2.1202,-2.1194,-2.1168,-2.1152,-2.1129,-2.1122,-2.1117,-2.109,-2.1093,-2.1095,-2.1102,-2.1084,-2.1076,-2.1072,-2.1116,-2.1116,-2.1116,-2.1116,0,0,-2.1282,-2.126,-2.1255,-2.1247,-2.1228,-2.1213,-2.1193,-2.1173,-2.1163,-2.1147,-2.113,-2.1102,-2.1105,-2.1091,-2.1086,-2.1073,-2.1054,-2.1077,-2.1076,-2.1073,-2.1024,-2.1023,-2.1019,-2.1053,-2.1052,-2.1051,-2.1026,0,-2.1254,-2.122,-2.1215,-2.1185,-2.1168,-2.1168,-2.1151,-2.1137,-2.1129,-2.1113,-2.1104,-2.1085,-2.109,-2.1082,-2.1069,-2.1059,-2.1043,-2.106,-2.1036,-2.1036,-2.1042,-2.1015,-2.1012,-2.0989,-2.1023,-2.1022,-2.1022,0,-2.1215,-2.1201,-2.117,-2.1156,-2.1149,-2.1133,-2.1116,-2.1101,-2.1086,-2.1082,-2.1069,-2.1066,-2.1045,-2.1054,-2.1026,-2.1038,-2.1028,-2.1022,-2.1021,-2.1017,-2.1027,-2.1011,-2.0982,-2.0978,-2.1016,-2.1017,-2.1017,0,-2.1196,-2.1168,-2.1147,-2.1139,-2.1122,-2.1112,-2.1104,-2.109,-2.1079,-2.1064,-2.1057,-2.1039,-2.1028,-2.1015,-2.1007,-2.1014,-2.098,-2.0987,-2.0975,-2.0975,-2.0967,-2.0967,-2.0936,-2.0961,-2.0961,-2.0961,-2.0961,0,-2.1165,-2.1145,-2.1138,-2.1124,-2.1104,-2.1099,-2.1078,-2.107,-2.1058,-2.1043,-2.1042,-2.1027,-2.1018,-2.1003,-2.0996,-2.0975,-2.097,-2.0966,-2.0964,-2.0966,-2.0966,-2.0958,-2.096,-2.096,-2.096,-2.0961,-2.0961,0,-2.1138,-2.1132,-2.1109,-2.1096,-2.1092,-2.1077,-2.1066,-2.1053,-2.1047,-2.1028,-2.1023,-2.1012,-2.0994,-2.0986,-2.0962,-2.0959,-2.0934,-2.0934,-2.094,-2.0939,-2.0928,-2.0929,-2.089,-2.0885,-2.0913,-2.0913,-2.0913,0,-2.1118,-2.1104,-2.1091,-2.1082,-2.1074,-2.1059,-2.1049,-2.1044,-2.1033,-2.1017,-2.1006,-2.0989,-2.0975,-2.0946,-2.0936,-2.0919,-2.0918,-2.0905,-2.0915,-2.0918,-2.0918,-2.0919,-2.0918,-2.0903,-2.0903,-2.0903,-2.0902,0,-2.1085,-2.1083,-2.1069,-2.1056,-2.1044,-2.1032,-2.1021,-2.1013,-2.1006,-2.0995,-2.0978,-2.0967,-2.0945,-2.0928,-2.0911,-2.0902,-2.0901,-2.09,-2.0896,-2.0897,-2.0902,-2.09,-2.0935,-2.09,-2.0901,-2.0901,-2.0901,-2.0901,-2.1061,-2.1049,-2.1039,-2.1024,-2.1016,-2.1006,-2.0994,-2.0987,-2.0973,-2.0956,-2.0954,-2.0936,-2.0923,-2.0901,-2.0892,-2.0877,-2.088,-2.0875,-2.0873,-2.0872,-2.0872,-2.0905,-2.0874,-2.0874,-2.0874,-2.0874,-2.0874,0,-2.1028,-2.1022,-2.1009,-2.0994,-2.0983,-2.0985,-2.0973,-2.0963,-2.0948,-2.0937,-2.0924,-2.0905,-2.089,-2.0879,-2.0863,-2.0854,-2.0853,-2.085,-2.085,-2.0849,-2.087,-2.0875,-2.0851,-2.0851,-2.0851,-2.0851,-2.0851,-2.0851,-2.1009,-2.099,-2.0988,-2.0965,-2.0959,-2.0942,-2.0935,-2.0926,-2.0918,-2.0898,-2.0885,-2.088,-2.0869,-2.0853,-2.0839,-2.0836,-2.0831,-2.0827,-2.0825,-2.0844,-2.0847,-2.0849,-2.0854,-2.0826,-2.0826,-2.0805,-2.0805,-2.0805]}]]